Location: Beetenbrück
(52.8113°N, 9.5946°E)
Time: 21:49:51
(UTC+00:00)

Cosmos 1315 Rocket - Pass Details

Date: 14 April 2026
Orbit: 490 x 510 km, 81.2° (Epoch: 12 May)

Event Time Altitude Azimuth Distance (km) Brightness Sun altitude
Exits shadow 22:50:20 27° 307° (NW) 993 4.5 -27.1°
Drops below altitude 10° 22:53:11 10° 354° (N) 1,725 6.3 -27.2°
Sets 22:55:31 0° 6° (N) 2,610 7.5 -27.3°
